EW5466 Weather Reports


time (UTC)temp
F
wind
direction
speed
knots
gust
knots
rain 1hr
in
rain 24hr
in
rain mn
in
humidity
%
barometer
mb
20260503211352 46 198 9.6 13.0 0.06 0.14 0.14 91 1007.6
20260503210850 46 192 9.6 13.0 0.06 0.14 0.14 91 1007.6
20260503210344 46 215 9.6 13.9 0.06 0.14 0.14 91 1007.6
20260503205838 46 205 9.6 13.9 0.07 0.14 0.14 91 1008.0
20260503205328 46 191 9.6 13.0 0.06 0.13 0.13 91 1008.0
20260503204822 46 215 9.6 13.9 0.06 0.13 0.13 91 1008.0
20260503204541 46 224 10.4 13.9 0.06 0.12 0.12 90 1007.9
20260503203810 46 228 10.4 13.9 0.05 0.11 0.11 90 1007.9
20260503203304 46 210 10.4 13.9 0.04 0.10 0.10 90 1007.9
20260503202802 46 222 9.6 13.9 0.05 0.10 0.10 90 1008.0
20260503202257 46 226 10.4 14.8 0.05 0.09 0.09 90 1008.0
20260503201746 46 210 10.4 14.8 0.04 0.08 0.08 90 1008.0
20260503201244 46 210 9.6 13.9 0.05 0.08 0.08 90 1008.1
20260503200739 46 228 9.6 13.9 0.06 0.08 0.08 90 1008.1
20260503200228 46 228 8.7 13.0 0.05 0.07 0.07 90 1008.1
20260503195951 46 219 9.6 13.9 0.06 0.07 0.07 89 1008.1
20260503195216 46 210 9.6 13.9 0.07 0.07 0.07 89 1008.1
20260503194714 46 232 8.7 14.8 0.07 0.07 0.07 90 1008.1
20260503194204 46 224 9.6 15.6 0.06 0.06 0.06 90 1008.7
20260503193703 46 181 9.6 15.6 0.06 0.06 0.06 89 1008.7
20260503193157 46 246 9.6 15.6 0.05 0.05 0.06 89 1008.7
20260503192646 46 265 8.7 13.9 0.05 0.05 0.05 89 1009.1
20260503192145 46 247 9.6 15.6 0.04 0.04 0.04 88 1009.1
20260503191634 47 246 10.4 17.4 0.04 0.04 0.04 87 1009.1
20260503191132 47 256 11.3 19.1 0.03 0.03 0.03 86 1009.1
20260503190626 47 262 13.0 23.5 0.02 0.02 0.02 85 1009.1
20260503190121 48 252 14.8 23.5 0.01 0.01 0.02 83 1009.1
20260503185614 49 281 17.4 27.8 0.01 0.01 0.01 81 1008.8
20260503185553 50 253 19.1 29.5 0.00 0.00 0.00 76 1008.8
20260503184821 52 254 20.0 33.9 0.00 0.00 0.00 72 1008.3
20260503184056 53 288 21.7 33.9 0.00 0.00 0.00 66 1008.3
20260503183549 55 248 22.6 33.0 0.00 0.00 0.00 63 1008.3
20260503183308 56 252 20.9 33.0 0.00 0.00 0.00 59 1008.0
20260503182533 57 273 19.1 31.3 0.00 0.00 0.00 58 1008.0
20260503182032 57 234 18.2 28.7 0.00 0.00 0.00 57 1008.0
20260503181522 57 269 18.2 28.7 0.00 0.00 0.00 56 1008.2
20260503181020 57 252 15.6 26.9 0.00 0.00 0.00 57 1008.2
20260503180956 57 263 13.9 25.2 0.00 0.00 0.00 59 1008.2
20260503180004 56 262 13.9 25.2 0.00 0.00 0.00 58 1008.5
20260503175724 57 282 14.8 25.2 0.00 0.00 0.00 57 1008.5
20260503174952 57 254 13.9 22.6 0.00 0.00 0.00 57 1008.5
20260503174450 57 254 13.0 22.6 0.00 0.00 0.00 56 1008.7
20260503173939 58 261 13.0 20.0 0.00 0.00 0.00 56 1008.7
20260503173439 58 239 13.0 19.1 0.00 0.00 0.00 56 1008.7
20260503173148 57 263 14.8 23.5 0.00 0.00 0.00 56 1008.7
20260503172421 57 263 14.8 23.5 0.00 0.00 0.00 57 1008.7
20260503172141 56 239 12.2 22.6 0.00 0.00 0.00 59 1008.7
20260503171415 56 253 11.3 20.0 0.00 0.00 0.00 59 1009.1
20260503171130 55 236 12.2 20.0 0.00 0.00 0.00 57 1009.1
20260503170358 55 256 13.9 21.7 0.00 0.00 0.00 56 1009.1
20260503170117 55 257 14.8 21.7 0.00 0.00 0.00 55 1009.3
20260503150804 52 215 12.2 16.5 0.00 0.00 0.00 59 1010.2
20260503150304 51 246 11.3 17.4 0.00 0.00 0.00 59 1010.2
20260503140158 47 179 9.6 13.9 0.00 0.00 0.00 67 1010.7
20260503131054 44 186 7.0 10.4 0.00 0.00 0.00 71 1011.4
20260503130548 43 191 6.1 9.6 0.00 0.00 0.00 72 1011.4
20260503120157 35 210 5.2 7.8 0.00 0.00 0.00 84 1011.9
20260503110824 31 196 5.2 7.0 0.00 0.00 0.00 84 1011.8
20260503110322 31 200 5.2 6.1 0.00 0.00 0.00 85 1011.8
20260503100245 30 205 5.2 6.1 0.00 0.00 0.00 83 1011.8
20260503090236 31 210 5.2 6.1 0.00 0.00 0.00 81 1011.9
20260503081234 31 210 4.3 6.1 0.00 0.00 0.00 80 1012.0
20260503080732 31 236 4.3 6.1 0.00 0.00 0.00 80 1012.0
20260503080232 31 194 5.2 7.0 0.00 0.00 0.00 79 1012.0
20260503072646 31 170 7.0 8.7 0.00 0.00 0.00 78 1011.9
20260503072409 31 174 7.0 8.7 0.00 0.00 0.00 78 1011.9
20260503071646 31 177 7.0 8.7 0.00 0.00 0.00 78 1011.9
20260503071406 31 156 7.0 8.7 0.00 0.00 0.00 78 1012.0
20260503070646 31 184 6.1 8.7 0.00 0.00 0.00 77 1012.0
20260503070146 31 178 6.1 9.6 0.00 0.00 0.00 77 1012.0
20260503055117 31 177 5.2 7.0 0.00 0.00 0.00 73 1012.9
20260503054618 31 177 5.2 7.0 0.00 0.00 0.00 73 1012.9
20260503054118 31 175 5.2 7.8 0.00 0.00 0.00 73 1013.0
20260503053618 31 175 5.2 7.8 0.00 0.00 0.00 73 1013.0
20260503053118 31 194 5.2 7.0 0.00 0.00 0.00 73 1013.0
20260503052611 31 169 5.2 7.0 0.00 0.00 0.00 73 1013.4
20260503052059 31 174 5.2 6.1 0.00 0.00 0.00 73 1013.4
20260503051547 31 177 4.3 6.1 0.00 0.00 0.00 72 1013.5
20260503051037 31 165 4.3 5.2 0.00 0.00 0.00 72 1013.5
20260503050537 31 165 4.3 5.2 0.00 0.00 0.00 73 1013.5
20260503050037 31 173 3.5 5.2 0.00 0.00 0.00 74 1013.5
20260503045538 31 168 3.5 4.3 0.00 0.00 0.00 74 1013.5
20260503045038 31 170 3.5 4.3 0.00 0.00 0.00 74 1013.5
20260503044537 31 178 3.5 4.3 0.00 0.00 0.00 73 1013.6
20260503044244 31 188 3.5 4.3 0.00 0.00 0.00 72 1013.6
20260503044228 31 181 3.5 4.3 0.00 0.00 0.00 72 1013.6
20260503043035 31 187 3.5 4.3 0.00 0.00 0.00 72 1013.8
20260503042524 31 190 3.5 4.3 0.00 0.00 0.00 72 1013.8
20260503042017 31 189 3.5 4.3 0.00 0.00 0.00 72 1013.8
20260503041517 31 188 3.5 4.3 0.00 0.00 0.00 72 1013.9
20260503041243 31 179 3.5 4.3 0.00 0.00 0.00 73 1013.9
20260503040517 31 196 3.5 3.5 0.00 0.00 0.00 72 1013.9
20260503040016 31 196 2.6 3.5 0.00 0.00 0.00 72 1014.0
20260503035516 31 196 2.6 3.5 0.00 0.00 0.00 73 1014.0
20260503035014 32 215 2.6 3.5 0.00 0.00 0.00 72 1014.0
20260503034512 32 215 2.6 3.5 0.00 0.00 0.00 71 1014.0
20260503034010 32 223 2.6 3.5 0.00 0.00 0.00 71 1014.0
20260503033510 32 234 2.6 3.5 0.00 0.00 0.00 70 1014.0
20260503033452 32 234 2.6 3.5 0.00 0.00 0.00 70 1014.0
20260503032508 32 234 2.6 3.5 0.00 0.00 0.00 70 1014.0
20260503032006 32 234 3.5 3.5 0.00 0.00 0.00 70 1014.0
20260503031728 32 234 3.5 4.3 0.00 0.00 0.00 70 1014.0
20260503031005 32 234 3.5 4.3 0.00 0.00 0.00 70 1014.0
20260503030454 32 236 3.5 4.3 0.00 0.00 0.00 70 1014.0
20260503025952 32 238 4.3 5.2 0.00 0.00 0.00 70 1014.1
20260503025445 32 238 4.3 5.2 0.00 0.00 0.00 70 1014.1
20260503024941 32 242 4.3 5.2 0.00 0.00 0.00 70 1014.1
20260503024440 33 237 4.3 5.2 0.00 0.00 0.00 69 1014.3
20260503023941 33 234 3.5 4.3 0.00 0.00 0.00 69 1014.3
20260503023439 33 230 3.5 4.3 0.00 0.00 0.00 69 1014.3
20260503022941 33 230 3.5 4.3 0.00 0.00 0.00 68 1014.3
20260503022440 33 239 3.5 3.5 0.00 0.00 0.00 67 1014.3
20260503022207 33 242 3.5 4.3 0.00 0.00 0.00 67 1014.3
20260503021440 33 241 2.6 4.3 0.00 0.00 0.00 67 1014.3
20260503020938 34 243 2.6 3.5 0.00 0.00 0.00 67 1014.3
20260503020436 34 247 2.6 3.5 0.00 0.00 0.00 66 1014.3
20260503015936 34 247 2.6 3.5 0.00 0.00 0.00 66 1014.2
20260503015657 34 247 3.5 3.5 0.00 0.00 0.00 66 1014.2
20260503014936 34 247 3.5 3.5 0.00 0.00 0.00 66 1014.2
20260503014655 35 247 2.6 3.5 0.00 0.00 0.00 65 1014.1
20260503013936 35 247 2.6 3.5 0.00 0.00 0.00 65 1014.1
20260503013435 35 259 3.5 4.3 0.00 0.00 0.00 62 1014.1
20260503012933 35 262 3.5 4.3 0.00 0.00 0.00 62 1014.1
20260503012655 36 256 2.6 3.5 0.00 0.00 0.00 61 1014.1
20260503012147 36 251 2.6 3.5 0.00 0.00 0.00 60 1014.1
20260503011420 37 269 2.6 3.5 0.00 0.00 0.00 59 1014.0
20260503010914 37 269 3.5 4.3 0.00 0.00 0.00 59 1014.0
20260503010404 37 269 3.5 4.3 0.00 0.00 0.00 59 1014.0
20260503005902 38 270 3.5 4.3 0.00 0.00 0.00 59 1014.0
20260503005351 38 268 3.5 7.0 0.00 0.00 0.00 58 1014.0
20260503004850 38 262 3.5 7.0 0.00 0.00 0.00 57 1014.0
20260503004606 38 269 4.3 7.0 0.00 0.00 0.00 57 1014.0
20260503003834 39 288 5.2 7.0 0.00 0.00 0.00 57 1014.0
20260503003333 39 278 5.2 7.8 0.00 0.00 0.00 56 1014.0
20260503002826 39 285 6.1 8.7 0.00 0.00 0.00 56 1014.0
20260503002540 40 273 7.0 9.6 0.00 0.00 0.00 56 1014.0
20260503001809 40 302 6.1 9.6 0.00 0.00 0.00 55 1014.0
20260503001529 40 288 6.1 8.7 0.00 0.00 0.00 54 1014.0
20260503000806 41 277 7.0 10.4 0.00 0.00 0.00 54 1014.0
20260503000531 41 272 7.8 12.2 0.00 0.00 0.00 53 1014.0
20260502235806 41 284 8.7 13.0 0.00 0.00 0.00 54 1014.0
20260502235756 41 306 9.6 13.9 0.00 0.00 0.00 53 1014.0
20260502234806 42 274 9.6 13.9 0.00 0.00 0.00 54 1014.0
20260502234307 42 300 8.7 13.0 0.00 0.00 0.00 54 1014.0
20260502233806 42 305 8.7 14.8 0.00 0.00 0.00 52 1014.0
20260502233304 42 274 10.4 15.6 0.00 0.00 0.00 52 1014.0
20260502232802 42 304 9.6 15.6 0.00 0.00 0.00 51 1014.0
20260502232304 43 286 7.8 13.0 0.00 0.00 0.00 50 1014.0
20260502231802 43 290 9.6 16.5 0.00 0.00 0.00 53 1014.0
20260502231302 43 315 11.3 16.5 0.00 0.00 0.00 50 1014.0
20260502230802 43 313 11.3 14.8 0.00 0.00 0.00 52 1014.0
20260502230301 44 315 10.4 16.5 0.00 0.00 0.00 50 1014.0
20260502225801 44 331 11.3 16.5 0.00 0.00 0.00 49 1014.0
20260502225300 44 317 9.6 14.8 0.00 0.00 0.00 51 1014.0
20260502225015 44 320 8.7 18.2 0.00 0.00 0.00 51 1014.0
20260502224249 44 325 10.4 18.2 0.00 0.00 0.00 51 1014.0
20260502223742 44 335 11.3 19.1 0.00 0.00 0.00 49 1014.0
20260502223236 45 326 10.4 19.1 0.00 0.00 0.00 49 1014.0
20260502222948 45 259 10.4 16.5 0.00 0.00 0.00 47 1014.0
20260502222219 45 272 9.6 16.5 0.00 0.00 0.00 50 1014.0
20260502221718 45 315 8.7 13.0 0.00 0.00 0.00 47 1014.0
20260502221434 45 314 8.7 13.9 0.00 0.00 0.00 52 1014.1
20260502220926 45 256 8.7 19.1 0.00 0.00 0.00 52 1014.1
20260502220204 45 304 9.6 19.1 0.00 0.00 0.00 52 1014.1
20260502215932 45 254 11.3 19.1 0.00 0.00 0.00 53 1014.1
20260502215204 44 294 12.2 19.1 0.00 0.00 0.00 55 1014.1
20260502214704 44 288 10.4 18.2 0.00 0.00 0.00 55 1014.1
20260502214204 44 307 13.0 21.7 0.00 0.00 0.00 57 1014.0
20260502213704 44 299 13.0 21.7 0.00 0.00 0.00 54 1014.0
20260502213204 44 314 10.4 16.5 0.00 0.00 0.00 56 1014.0
20260502212704 43 296 11.3 20.0 0.00 0.00 0.00 57 1014.1
20260502212204 43 300 14.8 23.5 0.00 0.00 0.00 58 1014.1